This is the latest recevied weather packets stored in our database for station/object SV4JYD-14. If no packets are shown the sender has not sent any weather packets the latest 10 day(s).
| Time | Temp. | Humidity | Pressure | Rain* | Wind** | Luminosity | Snow |
|---|---|---|---|---|---|---|---|
| 1777583193 | 16.67° C | 64% | 1014 hPa | 0 mm | - | - | - |
| 1777582293 | 16.67° C | 65% | 1014 hPa | 0 mm | - | - | - |
| 1777581393 | 16.67° C | 67% | 1014 hPa | 0 mm | - | - | - |
| 1777580492 | 17.22° C | 66% | 1013 hPa | 0 mm | - | - | - |
| 1777579592 | 17.22° C | 66% | 1013 hPa | 0 mm | - | - | - |
| 1777578692 | 17.22° C | 64% | 1013 hPa | 0 mm | - | - | - |
| 1777577792 | 17.22° C | 64% | 1013 hPa | 0 mm | - | - | - |
| 1777576891 | 17.22° C | 63% | 1013 hPa | 0 mm | - | - | - |
| 1777575991 | 17.22° C | 62% | 1013 hPa | 0 mm | - | - | - |
| 1777575091 | 17.78° C | 61% | 1013 hPa | 0 mm | - | - | - |
| 1777574191 | 18.33° C | 60% | 1013 hPa | 0 mm | - | - | - |
| 1777573290 | 18.89° C | 59% | 1013 hPa | 0 mm | - | - | - |
| 1777572390 | 18.89° C | 59% | 1013 hPa | 0 mm | - | - | - |
| 1777571490 | 19.44° C | 60% | 1013 hPa | 0 mm | - | - | - |
| 1777570590 | 19.44° C | 59% | 1013 hPa | 0 mm | - | - | - |
| 1777569689 | 20° C | 60% | 1012 hPa | 0 mm | - | - | - |
| 1777568789 | 20.56° C | 58% | 1012 hPa | 0 mm | - | - | - |
| 1777567889 | 20.56° C | 52% | 1012 hPa | 0 mm | - | - | - |
| 1777566989 | 21.67° C | 49% | 1012 hPa | 0 mm | - | - | - |
| 1777566088 | 21.11° C | 57% | 1012 hPa | 0 mm | - | - | - |
| 1777565188 | 21.11° C | 57% | 1012 hPa | 0 mm | - | - | - |
| 1777564288 | 21.67° C | 54% | 1012 hPa | 0 mm | - | - | - |
| 1777563387 | 21.67° C | 56% | 1012 hPa | 0 mm | - | - | - |
| 1777562487 | 22.22° C | 49% | 1012 hPa | 0 mm | - | - | - |
| 1777561587 | 22.22° C | 45% | 1012 hPa | 0 mm | - | - | - |
* Rain latest hour (hover to see other rain measurements)
** Current wind speed in m/s (hover to see current wind gust speed)